Flag for Germany Weather past 2 weeks in Hannover, Lower Saxony, Germany

Now
55 °F

Passing clouds.


Feels Like: 54 °F
Forecast: 50 / 64 °F
Wind: 6 mph from Southwest

Location: Hannover

Current Time: Aug 31, 2014 at 5:21:00 AM

Latest Report: Aug 31, 2014 at 4:50 AM


Visibility: N/A

Pressure: 29.92 "Hg

Humidity: 94%

Dew point: 54 °F

Location of HannoverLocation

Historic Weather in Hannover — Graph

°F

Hannover temperature yesterday

Maximum temperature yesterday: 66 °F (at 12:50 PM)
Minimum temperature yesterday: 57 °F (at 12:20 AM)
Average temperature yesterday: 61 °F

Past Weeks' High & Low Weather Summary

 TemperatureHumidityPressure
High73 °F (Aug 28, 2:50 PM)100% (Aug 25, 12:20 AM)30.07 "Hg (Aug 25, 12:20 AM)
Low43 °F (Aug 25, 5:20 AM)43% (Aug 28, 12:50 PM)29.59 "Hg (Aug 18, 5:20 AM)
Average58 °F78%29.90 "Hg
* Reported Aug 16 4:20 AM — Aug 31 4:20 AM, Hannover, Weather by CustomWeather, © 2014

Note: Actual official high and low records may vary slightly from our data, if they occured in-between our weather recording intervals... More about our weather records

Advertising

Hannover weather history for previous 24 hours

 ConditionsComfort  
Time TempWeatherWind HumidityBarometerVisibility
4:20 AM
Aug 31
55 °FPartly cloudy.8 mph94%29.92 "HgN/A
3:50 AM55 °FPartly cloudy.7 mph94%29.92 "HgN/A
3:20 AM55 °FPassing clouds.6 mph94%29.95 "HgN/A
2:50 AM57 °FPartly cloudy.7 mph94%29.95 "HgN/A
2:20 AM57 °FPassing clouds.8 mph94%29.95 "HgN/A
1:50 AM57 °FPassing clouds.6 mph94%29.95 "HgN/A
1:20 AM57 °FPassing clouds.6 mph94%29.95 "HgN/A
12:50 AM59 °FPartly cloudy.8 mph88%29.95 "HgN/A
12:20 AM59 °FPassing clouds.9 mph94%29.95 "HgN/A
11:50 PM
Aug 30
61 °FPassing clouds.6 mph94%29.95 "HgN/A
11:20 PM61 °FPassing clouds.5 mph94%29.95 "HgN/A
10:50 PM61 °FPartly cloudy.6 mph94%29.95 "HgN/A
10:20 PM61 °FLight rain. Passing clouds.7 mph94%29.95 "HgN/A
9:50 PM61 °FRain. Partly cloudy.8 mph94%29.95 "Hg4 mi
9:20 PM61 °FLight rain. Passing clouds.8 mph94%29.95 "HgN/A
8:50 PM61 °FLight rain. Broken clouds.6 mph94%29.95 "HgN/A
8:20 PM61 °FLight rain. Broken clouds.9 mph94%29.95 "HgN/A
7:20 PM61 °FLight rain. Broken clouds.9 mph94%29.95 "HgN/A
6:50 PM61 °FBroken clouds.8 mph94%29.95 "HgN/A
6:20 PM61 °FLight rain. Partly sunny.10 mph94%29.98 "Hg5 mi
5:50 PM63 °FPartly sunny.8 mph88%29.98 "HgN/A
5:20 PM63 °FBroken clouds.7 mph88%29.98 "HgN/A
4:50 PM63 °FLight rain. Broken clouds.8 mph88%29.98 "HgN/A
4:20 PM63 °FSprinkles. Broken clouds.12 mph88%29.98 "Hg5 mi
3:50 PM64 °FBroken clouds.5 mph78%29.98 "HgN/A
3:20 PM63 °FSprinkles. Broken clouds.12 mph83%29.98 "Hg6 mi
2:50 PM64 °FLight rain. Partly sunny.13 mph78%29.98 "Hg5 mi
2:20 PM66 °FPartly sunny.12 mph68%29.98 "HgN/A
1:50 PM66 °FPartly sunny.10 mph68%29.98 "HgN/A
1:20 PM66 °FPartly sunny.9 mph73%29.98 "HgN/A
12:50 PM66 °FPartly sunny.13 mph73%29.98 "HgN/A
12:20 PM64 °FPartly sunny.9 mph78%29.98 "HgN/A
11:50 AM64 °FPartly sunny.13 mph73%29.98 "HgN/A
11:20 AM63 °FPartly sunny.10 mph83%29.98 "HgN/A
10:50 AM61 °FLight rain. Partly sunny.12 mph83%29.98 "HgN/A
10:20 AM63 °FBroken clouds.10 mph77%29.98 "HgN/A
9:50 AM61 °FBroken clouds.12 mph83%29.98 "HgN/A
9:20 AM61 °FBroken clouds.10 mph83%29.98 "HgN/A
8:50 AM61 °FBroken clouds.9 mph83%29.98 "HgN/A
8:20 AM61 °FSunny.8 mph83%29.98 "Hg10 mi
7:50 AM59 °FSunny.6 mph82%29.98 "Hg10 mi
7:20 AM59 °FClear.7 mph82%29.98 "Hg10 mi
6:50 AM59 °FClear.9 mph82%29.98 "Hg10 mi
6:20 AM59 °FClear.8 mph82%29.98 "Hg10 mi
5:50 AM59 °FClear.9 mph82%29.98 "Hg10 mi
5:20 AM59 °FClear.7 mph82%29.98 "Hg10 mi
Weather by CustomWeather, © 2014

See weather overviewHow to use our weather pages